| time (UTC) | temp F | wind direction | speed MPH | gust MPH | rain 1hr in | rain 24hr in | rain mn in | humidity % | barometer mb |
| 20260507231816 | 58 | 268 | 9.0 | 19.0 | 0.00 | 0.00 | 0.00 | 29 | 1007.1 |
| 20260507231503 | 57 | 280 | 8.0 | 20.0 | 0.00 | 0.00 | 0.00 | 29 | 1007.2 |
| 20260507230809 | 58 | 326 | 13.0 | 19.0 | 0.00 | 0.00 | 0.00 | 29 | 1007.1 |
| 20260507230107 | 57 | 306 | 13.0 | 17.0 | 0.00 | 0.00 | 0.00 | 29 | 1007.2 |
| 20260507225759 | 58 | 295 | 6.0 | 16.0 | 0.00 | 0.00 | 0.00 | 29 | 1007.3 |
| 20260507224756 | 57 | 309 | 11.0 | 19.0 | 0.00 | 0.00 | 0.00 | 29 | 1007.3 |
| 20260507224505 | 57 | 304 | 10.0 | 18.0 | 0.00 | 0.00 | 0.00 | 29 | 1007.5 |
| 20260507223806 | 57 | 317 | 14.0 | 19.0 | 0.00 | 0.00 | 0.00 | 29 | 1007.4 |
| 20260507223103 | 57 | 327 | 16.0 | 20.0 | 0.00 | 0.00 | 0.00 | 31 | 1007.4 |
| 20260507222815 | 57 | 309 | 7.0 | 16.0 | 0.00 | 0.00 | 0.00 | 32 | 1007.4 |
| 20260507221813 | 57 | 285 | 10.0 | 16.0 | 0.00 | 0.00 | 0.00 | 30 | 1007.4 |
| 20260507221505 | 57 | 286 | 11.0 | 17.0 | 0.00 | 0.00 | 0.00 | 30 | 1007.5 |
| 20260507220751 | 57 | 302 | 10.0 | 17.0 | 0.00 | 0.00 | 0.00 | 30 | 1007.5 |
| 20260507215744 | 57 | 328 | 10.0 | 18.0 | 0.00 | 0.00 | 0.00 | 32 | 1007.5 |
| 20260507214747 | 57 | 285 | 10.0 | 18.0 | 0.00 | 0.00 | 0.00 | 31 | 1007.6 |
| 20260507214503 | 57 | 283 | 12.0 | 17.0 | 0.00 | 0.00 | 0.00 | 29 | 1007.7 |
| 20260507213714 | 57 | 276 | 9.0 | 22.0 | 0.00 | 0.00 | 0.00 | 30 | 1007.7 |
| 20260507213105 | 56 | 300 | 8.0 | 23.0 | 0.00 | 0.00 | 0.00 | 30 | 1007.8 |
| 20260507212645 | 57 | 279 | 13.0 | 22.0 | 0.00 | 0.00 | 0.00 | 29 | 1007.7 |
| 20260507211652 | 56 | 327 | 11.0 | 21.0 | 0.00 | 0.00 | 0.00 | 29 | 1007.9 |
| 20260507211616 | 56 | 301 | 10.0 | 21.0 | 0.00 | 0.00 | 0.00 | 32 | 1007.9 |
| 20260507210706 | 56 | 291 | 9.0 | 21.0 | 0.00 | 0.00 | 0.00 | 31 | 1008.0 |
| 20260507210002 | 55 | 332 | 13.0 | 22.0 | 0.00 | 0.00 | 0.00 | 32 | 1008.0 |
| 20260507205637 | 55 | 319 | 9.0 | 20.0 | 0.00 | 0.00 | 0.00 | 29 | 1008.0 |
| 20260507204646 | 55 | 299 | 9.0 | 22.0 | 0.00 | 0.00 | 0.00 | 32 | 1008.2 |
| 20260507204602 | 55 | 312 | 14.0 | 21.0 | 0.00 | 0.00 | 0.00 | 31 | 1008.1 |
| 20260507203639 | 55 | 313 | 9.0 | 22.0 | 0.00 | 0.00 | 0.00 | 31 | 1008.3 |
| 20260507203004 | 55 | 305 | 6.0 | 14.0 | 0.00 | 0.00 | 0.00 | 31 | 1008.5 |
| 20260507202642 | 55 | 345 | 7.0 | 18.0 | 0.00 | 0.00 | 0.00 | 31 | 1008.4 |
| 20260507201617 | 55 | 307 | 10.0 | 19.0 | 0.00 | 0.00 | 0.00 | 32 | 1008.6 |
| 20260507201613 | 56 | 309 | 9.0 | 18.0 | 0.00 | 0.00 | 0.00 | 32 | 1008.5 |
| 20260507200543 | 54 | 27 | 4.0 | 20.0 | 0.00 | 0.00 | 0.00 | 32 | 1008.5 |
| 20260507200002 | 53 | 21 | 5.0 | 21.0 | 0.00 | 0.00 | 0.00 | 31 | 1008.8 |
| 20260507195527 | 54 | 326 | 9.0 | 20.0 | 0.00 | 0.00 | 0.00 | 32 | 1008.9 |
| 20260507194603 | 53 | 340 | 10.0 | 19.0 | 0.00 | 0.00 | 0.00 | 31 | 1008.9 |
| 20260507194532 | 54 | 342 | 10.0 | 18.0 | 0.00 | 0.00 | 0.00 | 31 | 1008.9 |
| 20260507193519 | 53 | 328 | 4.0 | 18.0 | 0.00 | 0.00 | 0.00 | 31 | 1008.9 |
| 20260507193003 | 53 | 320 | 4.0 | 19.0 | 0.00 | 0.00 | 0.00 | 31 | 1009.1 |
| 20260507192515 | 53 | 336 | 11.0 | 21.0 | 0.00 | 0.00 | 0.00 | 32 | 1009.1 |
| 20260507191605 | 53 | 323 | 14.0 | 22.0 | 0.00 | 0.00 | 0.00 | 31 | 1009.1 |
| 20260507191534 | 53 | 321 | 12.0 | 21.0 | 0.00 | 0.00 | 0.00 | 31 | 1009.1 |
| 20260507190004 | 52 | 322 | 5.0 | 19.0 | 0.00 | 0.00 | 0.00 | 34 | 1009.2 |
| 20260507185427 | 53 | 333 | 8.0 | 19.0 | 0.00 | 0.00 | 0.00 | 35 | 1009.1 |
| 20260507184603 | 52 | 319 | 11.0 | 20.0 | 0.00 | 0.00 | 0.00 | 35 | 1009.3 |
| 20260507184444 | 52 | 307 | 11.0 | 19.0 | 0.00 | 0.00 | 0.00 | 32 | 1009.3 |
| 20260507183416 | 52 | 352 | 9.0 | 17.0 | 0.00 | 0.00 | 0.00 | 33 | 1009.4 |
| 20260507183010 | 51 | 288 | 7.0 | 17.0 | 0.00 | 0.00 | 0.00 | 35 | 1009.5 |
| 20260507181605 | 51 | 309 | 11.0 | 22.0 | 0.00 | 0.00 | 0.00 | 34 | 1009.5 |
| 20260507181233 | 51 | 283 | 9.0 | 21.0 | 0.00 | 0.00 | 0.00 | 35 | 1009.4 |
| 20260507180002 | 51 | 341 | 9.0 | 20.0 | 0.00 | 0.00 | 0.00 | 35 | 1009.7 |
| 20260507175038 | 51 | 278 | 10.0 | 21.0 | 0.00 | 0.00 | 0.00 | 36 | 1009.6 |
| 20260507174604 | 50 | 307 | 9.0 | 22.0 | 0.00 | 0.00 | 0.00 | 38 | 1009.8 |
| 20260507174044 | 51 | 331 | 10.0 | 20.0 | 0.00 | 0.00 | 0.00 | 35 | 1009.7 |
| 20260507173025 | 51 | 281 | 10.0 | 19.0 | 0.00 | 0.00 | 0.00 | 37 | 1009.9 |
| 20260507173007 | 50 | 264 | 12.0 | 20.0 | 0.00 | 0.00 | 0.00 | 35 | 1009.9 |
| 20260507172046 | 51 | 297 | 7.0 | 14.0 | 0.00 | 0.00 | 0.00 | 35 | 1009.9 |
| 20260507171606 | 50 | 308 | 8.0 | 15.0 | 0.00 | 0.00 | 0.00 | 39 | 1010.0 |
| 20260507171014 | 50 | 347 | 5.0 | 15.0 | 0.00 | 0.00 | 0.00 | 39 | 1010.0 |
| 20260507170003 | 50 | 344 | 10.0 | 17.0 | 0.00 | 0.00 | 0.00 | 40 | 1010.2 |
| 20260507165940 | 50 | 332 | 8.0 | 16.0 | 0.00 | 0.00 | 0.00 | 40 | 1010.1 |
| 20260507165001 | 50 | 342 | 6.0 | 16.0 | 0.00 | 0.00 | 0.00 | 39 | 1010.2 |
| 20260507164607 | 50 | 334 | 4.0 | 13.0 | 0.00 | 0.00 | 0.00 | 45 | 1010.4 |
| 20260507163002 | 49 | 322 | 12.0 | 17.0 | 0.00 | 0.00 | 0.00 | 41 | 1010.6 |
| 20260507161725 | 49 | 283 | 4.0 | 14.0 | 0.00 | 0.00 | 0.00 | 41 | 1010.5 |
| 20260507160703 | 48 | 49 | 7.0 | 15.0 | 0.00 | 0.00 | 0.00 | 41 | 1010.6 |
| 20260507160003 | 48 | 283 | 10.0 | 16.0 | 0.00 | 0.00 | 0.00 | 40 | 1010.7 |
| 20260507155629 | 49 | 312 | 3.0 | 12.0 | 0.00 | 0.00 | 0.00 | 41 | 1010.6 |
| 20260507154503 | 48 | 125 | 1.0 | 6.0 | 0.00 | 0.00 | 0.00 | 43 | 1010.7 |
| 20260507153543 | 47 | 308 | 4.0 | 10.0 | 0.00 | 0.00 | 0.00 | 45 | 1010.8 |
| 20260507153111 | 47 | 281 | 3.0 | 9.0 | 0.00 | 0.00 | 0.00 | 44 | 1010.8 |
| 20260507152520 | 47 | 295 | 5.0 | 10.0 | 0.00 | 0.00 | 0.00 | 46 | 1010.8 |
| 20260507151502 | 47 | 309 | 4.0 | 8.0 | 0.00 | 0.00 | 0.00 | 48 | 1011.0 |
| 20260507151452 | 48 | 278 | 2.0 | 7.0 | 0.00 | 0.00 | 0.00 | 48 | 1010.9 |
| 20260507150501 | 47 | 333 | 1.0 | 7.0 | 0.00 | 0.00 | 0.00 | 45 | 1010.9 |
| 20260507145434 | 47 | 200 | 1.0 | 6.0 | 0.00 | 0.00 | 0.00 | 49 | 1010.9 |
| 20260507144506 | 47 | 344 | 1.0 | 6.0 | 0.00 | 0.00 | 0.00 | 48 | 1011.1 |
| 20260507143114 | 45 | 319 | 2.0 | 5.0 | 0.00 | 0.00 | 0.00 | 53 | 1011.1 |
| 20260507141502 | 44 | 312 | 3.0 | 6.0 | 0.00 | 0.00 | 0.00 | 54 | 1011.2 |
| 20260507141004 | 44 | 323 | 1.0 | 5.0 | 0.00 | 0.00 | 0.00 | 56 | 1011.2 |
| 20260507140017 | 44 | 340 | 0.0 | 4.0 | 0.00 | 0.00 | 0.00 | 62 | 1011.3 |
| 20260507135038 | 43 | 283 | 0.0 | 3.0 | 0.00 | 0.00 | 0.00 | 62 | 1011.4 |
| 20260507134614 | 42 | 259 | 0.0 | 2.0 | 0.00 | 0.00 | 0.00 | 65 | 1011.4 |
| 20260507134051 | 42 | 288 | 0.0 | 2.0 | 0.00 | 0.00 | 0.00 | 65 | 1011.3 |
| 20260507133106 | 42 | 285 | 0.0 | 2.0 | 0.00 | 0.00 | 0.00 | 63 | 1011.3 |
| 20260507133002 | 42 | 297 | 1.0 | 3.0 | 0.00 | 0.00 | 0.00 | 63 | 1011.4 |
| 20260507132045 | 43 | 86 | 0.0 | 1.0 | 0.00 | 0.00 | 0.00 | 64 | 1011.3 |
| 20260507131602 | 42 | 106 | 0.0 | 1.0 | 0.00 | 0.00 | 0.00 | 66 | 1011.4 |
| 20260507131044 | 42 | 124 | 0.0 | 0.0 | 0.00 | 0.00 | 0.00 | 67 | 1011.5 |
| 20260507130018 | 40 | 103 | 0.0 | 1.0 | 0.00 | 0.00 | 0.00 | 71 | 1011.5 |
| 20260507130002 | 40 | 103 | 0.0 | 2.0 | 0.00 | 0.00 | 0.00 | 71 | 1011.6 |
| 20260507124602 | 38 | 103 | 0.0 | 1.0 | 0.00 | 0.00 | 0.00 | 75 | 1011.6 |
| 20260507123824 | 37 | 103 | 0.0 | 0.0 | 0.00 | 0.00 | 0.00 | 79 | 1011.6 |
| 20260507123006 | 34 | 103 | 0.0 | 1.0 | 0.00 | 0.00 | 0.00 | 83 | 1011.7 |
| 20260507122844 | 34 | 103 | 0.0 | 0.0 | 0.00 | 0.00 | 0.00 | 83 | 1011.6 |
| 20260507121621 | 31 | 103 | 0.0 | 2.0 | 0.00 | 0.00 | 0.00 | 85 | 1011.7 |
| 20260507120657 | 31 | 106 | 0.0 | 1.0 | 0.00 | 0.00 | 0.00 | 86 | 1011.6 |
| 20260507120002 | 30 | 150 | 0.0 | 1.0 | 0.00 | 0.00 | 0.00 | 85 | 1011.7 |
| 20260507115623 | 31 | 153 | 0.0 | 0.0 | 0.00 | 0.00 | 0.00 | 85 | 1011.7 |
| 20260507114640 | 29 | 153 | 0.0 | 1.0 | 0.00 | 0.00 | 0.00 | 87 | 1011.5 |
| 20260507114631 | 30 | 153 | 0.0 | 0.0 | 0.00 | 0.00 | 0.00 | 87 | 1011.5 |
| 20260507113554 | 28 | 153 | 0.0 | 0.0 | 0.00 | 0.00 | 0.00 | 88 | 1011.5 |
| 20260507113009 | 28 | 153 | 1.0 | 1.0 | 0.00 | 0.00 | 0.00 | 89 | 1011.6 |
| 20260507112541 | 28 | 153 | 0.0 | 0.0 | 0.00 | 0.00 | 0.00 | 89 | 1011.5 |
| 20260507111604 | 27 | 167 | 0.0 | 1.0 | 0.00 | 0.00 | 0.00 | 89 | 1011.5 |
| 20260507110412 | 27 | 167 | 0.0 | 0.0 | 0.00 | 0.00 | 0.00 | 90 | 1011.5 |
| 20260507110002 | 27 | 167 | 0.0 | 0.0 | 0.00 | 0.00 | 0.00 | 89 | 1011.5 |
| 20260507105411 | 27 | 167 | 0.0 | 0.0 | 0.00 | 0.00 | 0.00 | 90 | 1011.5 |
| 20260507104602 | 26 | 167 | 0.0 | 0.0 | 0.00 | 0.00 | 0.00 | 89 | 1011.5 |
| 20260507103002 | 27 | 167 | 0.0 | 0.0 | 0.00 | 0.00 | 0.00 | 89 | 1011.6 |
| 20260507102217 | 27 | 167 | 0.0 | 0.0 | 0.00 | 0.00 | 0.00 | 89 | 1011.6 |
| 20260507101614 | 27 | 167 | 0.0 | 0.0 | 0.00 | 0.00 | 0.00 | 89 | 1011.7 |
| 20260507101151 | 27 | 167 | 0.0 | 0.0 | 0.00 | 0.00 | 0.00 | 88 | 1011.6 |
| 20260507100152 | 28 | 167 | 0.0 | 0.0 | 0.00 | 0.00 | 0.00 | 88 | 1011.6 |
| 20260507100002 | 28 | 167 | 0.0 | 0.0 | 0.00 | 0.00 | 0.00 | 88 | 1011.7 |
| 20260507095137 | 28 | 167 | 0.0 | 0.0 | 0.00 | 0.00 | 0.00 | 88 | 1011.5 |
| 20260507094606 | 28 | 167 | 0.0 | 0.0 | 0.00 | 0.00 | 0.00 | 87 | 1011.6 |
| 20260507093048 | 29 | 167 | 0.0 | 0.0 | 0.00 | 0.00 | 0.00 | 87 | 1011.5 |
| 20260507093003 | 28 | 167 | 0.0 | 0.0 | 0.00 | 0.00 | 0.00 | 87 | 1011.5 |
| 20260507092101 | 29 | 167 | 0.0 | 0.0 | 0.00 | 0.00 | 0.00 | 87 | 1011.6 |
| 20260507091603 | 29 | 167 | 0.0 | 0.0 | 0.00 | 0.00 | 0.00 | 87 | 1011.6 |
| 20260507091111 | 29 | 167 | 0.0 | 0.0 | 0.00 | 0.00 | 0.00 | 86 | 1011.6 |
| 20260507090049 | 29 | 167 | 0.0 | 0.0 | 0.00 | 0.00 | 0.00 | 86 | 1011.7 |
| 20260507090006 | 29 | 167 | 0.0 | 0.0 | 0.00 | 0.00 | 0.00 | 86 | 1011.7 |
| 20260507084603 | 30 | 167 | 0.0 | 0.0 | 0.00 | 0.00 | 0.00 | 84 | 1011.7 |
| 20260507083945 | 30 | 167 | 0.0 | 0.0 | 0.00 | 0.00 | 0.00 | 84 | 1011.7 |
| 20260507083003 | 30 | 167 | 0.0 | 0.0 | 0.00 | 0.00 | 0.00 | 84 | 1011.8 |
| 20260507082955 | 31 | 167 | 0.0 | 0.0 | 0.00 | 0.00 | 0.00 | 84 | 1011.7 |
| 20260507081602 | 30 | 167 | 0.0 | 0.0 | 0.00 | 0.00 | 0.00 | 85 | 1011.7 |
| 20260507080803 | 31 | 167 | 0.0 | 0.0 | 0.00 | 0.00 | 0.00 | 83 | 1011.6 |
| 20260507080120 | 32 | 167 | 0.0 | 0.0 | 0.00 | 0.00 | 0.00 | 83 | 1011.6 |
| 20260507075813 | 32 | 167 | 0.0 | 0.0 | 0.00 | 0.00 | 0.00 | 83 | 1011.6 |
| 20260507074821 | 33 | 167 | 0.0 | 0.0 | 0.00 | 0.00 | 0.00 | 83 | 1011.6 |
| 20260507074502 | 32 | 167 | 0.0 | 1.0 | 0.00 | 0.00 | 0.00 | 83 | 1011.7 |
| 20260507073827 | 33 | 167 | 0.0 | 0.0 | 0.00 | 0.00 | 0.00 | 81 | 1011.8 |
| 20260507073108 | 33 | 167 | 0.0 | 0.0 | 0.00 | 0.00 | 0.00 | 80 | 1011.9 |
| 20260507072755 | 33 | 167 | 0.0 | 0.0 | 0.00 | 0.00 | 0.00 | 80 | 1011.9 |
| 20260507071809 | 34 | 167 | 0.0 | 0.0 | 0.00 | 0.00 | 0.00 | 79 | 1011.9 |
| 20260507071502 | 34 | 167 | 0.0 | 1.0 | 0.00 | 0.00 | 0.00 | 80 | 1012.0 |
| 20260507070755 | 34 | 167 | 0.0 | 0.0 | 0.00 | 0.00 | 0.00 | 79 | 1012.0 |
| 20260507070104 | 34 | 167 | 0.0 | 2.0 | 0.00 | 0.00 | 0.00 | 79 | 1012.2 |
| 20260507065730 | 35 | 167 | 0.0 | 1.0 | 0.00 | 0.00 | 0.00 | 79 | 1012.2 |
| 20260507064728 | 35 | 167 | 0.0 | 0.0 | 0.00 | 0.00 | 0.00 | 79 | 1012.3 |
| 20260507064502 | 35 | 167 | 0.0 | 2.0 | 0.00 | 0.00 | 0.00 | 79 | 1012.3 |
| 20260507063745 | 35 | 167 | 0.0 | 1.0 | 0.00 | 0.00 | 0.00 | 79 | 1012.3 |
| 20260507063107 | 35 | 167 | 1.0 | 2.0 | 0.00 | 0.00 | 0.00 | 80 | 1012.4 |
| 20260507061548 | 36 | 200 | 0.0 | 1.0 | 0.00 | 0.00 | 0.00 | 79 | 1012.5 |
| 20260507061503 | 36 | 200 | 1.0 | 2.0 | 0.00 | 0.00 | 0.00 | 79 | 1012.6 |
| 20260507055344 | 37 | 199 | 1.0 | 1.0 | 0.00 | 0.00 | 0.00 | 77 | 1012.5 |
| 20260507054511 | 36 | 199 | 1.0 | 2.0 | 0.00 | 0.00 | 0.00 | 76 | 1012.6 |
| 20260507053209 | 37 | 199 | 0.0 | 0.0 | 0.00 | 0.00 | 0.00 | 74 | 1012.5 |
| 20260507053123 | 37 | 199 | 1.0 | 1.0 | 0.00 | 0.00 | 0.00 | 75 | 1012.6 |
| 20260507052155 | 37 | 199 | 0.0 | 0.0 | 0.00 | 0.00 | 0.00 | 73 | 1012.6 |
| 20260507051503 | 37 | 199 | 0.0 | 2.0 | 0.00 | 0.00 | 0.00 | 75 | 1012.7 |
| 20260507051152 | 37 | 199 | 0.0 | 1.0 | 0.00 | 0.00 | 0.00 | 74 | 1012.6 |
| 20260507050116 | 37 | 199 | 0.0 | 0.0 | 0.00 | 0.00 | 0.00 | 72 | 1012.8 |
| 20260507045055 | 38 | 199 | 0.0 | 0.0 | 0.00 | 0.00 | 0.00 | 70 | 1012.8 |
| 20260507044502 | 37 | 199 | 0.0 | 0.0 | 0.00 | 0.00 | 0.00 | 70 | 1012.9 |
| 20260507044055 | 38 | 199 | 0.0 | 0.0 | 0.00 | 0.00 | 0.00 | 71 | 1012.8 |
| 20260507043103 | 38 | 199 | 0.0 | 0.0 | 0.00 | 0.00 | 0.00 | 70 | 1012.9 |
| 20260507043019 | 38 | 199 | 0.0 | 0.0 | 0.00 | 0.00 | 0.00 | 70 | 1012.8 |
| 20260507042033 | 39 | 199 | 0.0 | 0.0 | 0.00 | 0.00 | 0.00 | 69 | 1012.8 |
| 20260507041503 | 38 | 199 | 0.0 | 2.0 | 0.00 | 0.00 | 0.00 | 68 | 1013.0 |
| 20260507041012 | 38 | 199 | 0.0 | 0.0 | 0.00 | 0.00 | 0.00 | 68 | 1013.0 |
| 20260507035940 | 38 | 199 | 0.0 | 1.0 | 0.00 | 0.00 | 0.00 | 68 | 1013.0 |
| 20260507034503 | 38 | 199 | 0.0 | 0.0 | 0.00 | 0.00 | 0.00 | 69 | 1013.2 |
| 20260507033112 | 38 | 199 | 0.0 | 3.0 | 0.00 | 0.00 | 0.00 | 68 | 1013.2 |
| 20260507032700 | 39 | 199 | 1.0 | 0.0 | 0.00 | 0.00 | 0.00 | 67 | 1013.1 |
| 20260507031502 | 38 | 321 | 0.0 | 1.0 | 0.00 | 0.00 | 0.00 | 69 | 1013.3 |
| 20260507025353 | 39 | 321 | 0.0 | 0.0 | 0.00 | 0.00 | 0.00 | 62 | 1013.3 |
| 20260507024508 | 39 | 321 | 0.0 | 0.0 | 0.00 | 0.00 | 0.00 | 62 | 1013.3 |
| 20260507024358 | 40 | 321 | 0.0 | 0.0 | 0.00 | 0.00 | 0.00 | 62 | 1013.3 |
| 20260507023333 | 40 | 321 | 0.0 | 0.0 | 0.00 | 0.00 | 0.00 | 61 | 1013.2 |
| 20260507023102 | 39 | 321 | 0.0 | 0.0 | 0.00 | 0.00 | 0.00 | 62 | 1013.3 |
| 20260507022326 | 40 | 321 | 0.0 | 0.0 | 0.00 | 0.00 | 0.00 | 62 | 1013.1 |
| 20260507021503 | 39 | 321 | 0.0 | 0.0 | 0.00 | 0.00 | 0.00 | 62 | 1013.3 |
| 20260507021327 | 40 | 321 | 0.0 | 0.0 | 0.00 | 0.00 | 0.00 | 62 | 1013.3 |
| 20260507020347 | 41 | 321 | 0.0 | 0.0 | 0.00 | 0.00 | 0.00 | 61 | 1013.2 |
| 20260507020116 | 40 | 321 | 0.0 | 0.0 | 0.00 | 0.00 | 0.00 | 60 | 1013.3 |
| 20260507015401 | 41 | 321 | 0.0 | 0.0 | 0.00 | 0.00 | 0.00 | 60 | 1013.2 |
| 20260507014503 | 41 | 321 | 0.0 | 2.0 | 0.00 | 0.00 | 0.00 | 59 | 1013.2 |
| 20260507013241 | 42 | 321 | 2.0 | 3.0 | 0.00 | 0.00 | 0.00 | 58 | 1013.1 |
| 20260507013102 | 41 | 321 | 2.0 | 4.0 | 0.00 | 0.00 | 0.00 | 59 | 1013.2 |
| 20260507012245 | 42 | 319 | 2.0 | 4.0 | 0.00 | 0.00 | 0.00 | 58 | 1013.2 |
| 20260507011509 | 41 | 326 | 2.0 | 6.0 | 0.00 | 0.00 | 0.00 | 58 | 1013.2 |
| 20260507011234 | 42 | 325 | 3.0 | 5.0 | 0.00 | 0.00 | 0.00 | 58 | 1013.2 |
| 20260507010233 | 43 | 302 | 5.0 | 8.0 | 0.00 | 0.00 | 0.00 | 55 | 1013.2 |
| 20260507010104 | 42 | 308 | 4.0 | 9.0 | 0.00 | 0.00 | 0.00 | 55 | 1013.3 |
| 20260507005249 | 43 | 304 | 7.0 | 10.0 | 0.00 | 0.00 | 0.00 | 54 | 1013.3 |
| 20260507004503 | 43 | 317 | 8.0 | 13.0 | 0.00 | 0.00 | 0.00 | 53 | 1013.3 |
| 20260507004213 | 44 | 316 | 9.0 | 12.0 | 0.00 | 0.00 | 0.00 | 54 | 1013.2 |
| 20260507003143 | 44 | 322 | 7.0 | 12.0 | 0.00 | 0.00 | 0.00 | 53 | 1013.3 |
| 20260507003102 | 44 | 313 | 10.0 | 13.0 | 0.00 | 0.00 | 0.00 | 54 | 1013.3 |
| 20260507002111 | 45 | 326 | 9.0 | 16.0 | 0.00 | 0.00 | 0.00 | 52 | 1013.3 |
| 20260507001504 | 44 | 311 | 11.0 | 16.0 | 0.00 | 0.00 | 0.00 | 54 | 1013.5 |
| 20260507001104 | 45 | 307 | 10.0 | 16.0 | 0.00 | 0.00 | 0.00 | 52 | 1013.5 |
| 20260506234920 | 45 | 304 | 13.0 | 22.0 | 0.00 | 0.00 | 0.00 | 53 | 1013.5 |
| 20260506234502 | 44 | 304 | 15.0 | 23.0 | 0.00 | 0.00 | 0.00 | 53 | 1013.5 |
| 20260506233112 | 44 | 261 | 11.0 | 16.0 | 0.00 | 0.00 | 0.00 | 53 | 1013.7 |
| 20260506232737 | 44 | 310 | 11.0 | 17.0 | 0.00 | 0.00 | 0.00 | 55 | 1013.6 |